Simultaneous Nadir Overpasses (SNOs) Predictions

Prediction of SNOs near US between AQUA and NPP Satellite Orbit:

Table of predicted SNOs near US for the next 10.0 days since TLE Epoch: 2/15/2020
Index Date (AQUA) Time (AQUA) AQUA Lat,Lon Date (NPP) Time (NPP) NPP Lat,Lon Distance(km) Time Diff (sec)
1 02/15/2020 18:17:02 49.96, -80.19 02/15/2020 18:09:58 49.68, -81.68 111.31 424
2 02/15/2020 19:55:55 49.95,-104.91 02/15/2020 19:51:26 49.57,-107.01 156.56 269
3 02/15/2020 21:31:05 36.65,-125.00 02/15/2020 21:29:05 36.19,-127.51 230.84 120
4 02/18/2020 09:24:39 20.04,-114.24 02/18/2020 09:16:19 19.73,-114.77 64.61 500
5 02/21/2020 06:30:56 44.82, -65.60 02/21/2020 06:30:29 45.16, -67.62 163.09 27
6 02/21/2020 08:08:23 49.93, -88.34 02/21/2020 08:10:28 50.40, -90.81 183.78 125
7 02/21/2020 09:47:16 49.94,-113.05 02/21/2020 09:51:55 50.57,-116.11 228.14 279
8 02/23/2020 19:06:35 50.00, -92.58 02/23/2020 19:00:46 49.66, -94.38 134.19 349
9 02/23/2020 20:45:28 49.99,-117.30 02/23/2020 20:42:14 49.55,-119.70 179.46 194




NCC Satellite Simultaneous Nadir Overpasses (SNOs) Prediction Service
